Tracking 26321 objects as of 27-Nov-2022
HD Live streaming from Space Station
objects crossing your sky now

HOTBIRD 13F

Track HOTBIRD 13F now!
HOTBIRD 13F is classified as:


NORAD ID: 54048
Int'l Code: 2022-134A
Perigee: 4,513.5 km
Apogee: 65,132.3 km
Inclination: 15.0 °
Period: 1,386.8 minutes
Semi major axis: 41193 km
RCS: Unknown
Launch date: October 15, 2022
Source: ()
Launch site: AIR FORCE EASTERN TEST RANGE (AFETR)
aabbcc
Your satellite tracking list
Your tracking list is empty




NASA's NSSDC Master Catalog

Two Line Element Set (TLE):
1 54048U 22134A   22326.83369819 -.00000037  00000-0  00000+0 0  9995
2 54048  14.9690 295.0256 7357736 188.5684 184.3353  1.03837252   456
Source of the keplerian elements: AFSPC